Location: Famechon
(49.7599°N, 2.0615°E)
Time: 13:43:53
(UTC+00:00)

FENGYUN 1C DEB - Visible Passes

Search period start: 16 June 2025 00:00
Search period end: 26 June 2025 00:00
Orbit: 630 x 836 km, 99.0° (Epoch: 15 June)

Date Brightness Start Highest point End Pass type
(mag) Time Alt. Az. Time Alt. Az. Time Alt. Az.
16 Jun ? 20:44:09 10° SE 20:48:28 37° ENE 20:53:02 10° N visible
16 Jun ? 22:23:01 12° SSW 22:26:47 33° W 22:31:15 10° NNW visible
17 Jun ? 21:36:16 13° SSE 21:40:26 83° WSW 21:45:29 10° NNW visible
17 Jun ? 23:17:51 10° WSW 23:19:37 12° W 23:21:25 10° WNW visible
18 Jun ? 20:50:01 10° SE 20:54:27 41° ENE 20:59:10 10° N visible
18 Jun ? 22:29:02 12° SSW 22:32:52 30° W 22:37:14 10° NNW visible
19 Jun ? 21:42:17 14° S 21:46:27 75° WSW 21:51:32 10° NNW visible
19 Jun ? 23:24:36 10° W 23:25:43 11° W 23:26:52 10° WNW visible
20 Jun ? 20:55:51 10° SE 21:00:26 46° ENE 21:05:17 10° N visible
20 Jun ? 22:35:03 11° SSW 22:38:55 27° W 22:43:12 10° NW visible
21 Jun ? 21:48:18 14° S 21:52:29 68° WSW 21:57:35 10° NNW visible
22 Jun ? 21:01:43 10° SE 21:06:24 51° ENE 21:11:24 10° N visible
22 Jun ? 22:41:05 10° SSW 22:44:59 25° W 22:49:11 10° NW visible
23 Jun ? 21:54:20 14° S 21:58:30 61° WSW 22:03:38 10° NNW visible
24 Jun ? 21:07:36 10° SE 21:12:23 57° ENE 21:17:29 10° N visible
24 Jun ? 22:47:11 10° SW 22:51:03 23° W 22:55:06 10° NW visible
25 Jun ? 22:00:22 14° S 22:04:32 55° W 22:09:40 10° NNW visible
